Home > Weather > Landshut > Past weeks

Flag for Germany Weather for the Past 2 Weeks in Landshut, Bavaria, Germany

Now
50 °F

Clear.


Feels Like: 46 °F
Forecast: 41 / 55 °F
Wind: 10 mph from West

Location: Munich / Franz Josef Strauss Airport

Current Time: May 3, 2016 at 9:07:13 AM

Latest Report: May 3, 2016 at 8:20 AM


Visibility: 4 mi

Pressure: 30.07 "Hg

Humidity: 88%

Dew Point: 46 °F

Location of LandshutLocation

Historic Weather in Landshut — Graph

°F

Landshut Temperature Yesterday

Maximum temperature yesterday: 61 °F (at 1:50 PM)
Minimum temperature yesterday: 41 °F (at 4:50 AM)
Average temperature yesterday: 52 °F

High & Low Weather Summary for the Past Weeks

 TemperatureHumidityPressure
High66 °F (Apr 22, 2:50 PM)100% (Apr 18, 7:20 AM)30.39 "Hg (Apr 18, 7:20 AM)
Low27 °F (Apr 29, 5:50 AM)22% (Apr 30, 4:50 PM)29.59 "Hg (Apr 26, 9:20 AM)
Average46 °F71%30.00 "Hg
* Reported Apr 18 7:20 AM — May 3 7:20 AM, Landshut, Weather by CustomWeather, © 2016

Note: Actual official high and low records may vary slightly from our data, if they occured in-between our weather recording intervals... More about our weather records

Advertising

Landshut Weather History for the Previous 24 Hours

Scroll right to see more
 ConditionsComfort  
Time TempWeatherWind HumidityBarometerVisibility
7:20 AM
Tue, May 3
46 °FClear.7 mph93%30.07 "Hg4 mi
6:50 AM45 °FClear.7 mph100%30.07 "Hg3 mi
6:20 AM43 °FClear.6 mph100%30.07 "Hg4 mi
5:50 AM45 °FClear.6 mph93%30.07 "Hg4 mi
5:20 AM45 °FClear.6 mph100%30.07 "Hg4 mi
4:20 AM43 °FClear.7 mph100%30.07 "Hg6 mi
3:20 AM43 °FClear.6 mph100%30.07 "Hg6 mi
2:50 AM45 °FClear.1 mph100%30.07 "Hg5 mi
2:20 AM43 °FClear.2 mph100%30.07 "Hg6 mi
1:50 AM43 °FClear.3 mph100%30.07 "Hg6 mi
1:20 AM45 °FClear.5 mph93%30.07 "Hg10 mi
12:20 AM45 °FClear.7 mph93%30.09 "Hg10 mi
11:50 PM
Mon, May 2
48 °FClear.3 mph87%30.09 "Hg10 mi
11:20 PM48 °FPassing clouds.7 mph87%30.09 "HgN/A
10:50 PM48 °FClear.9 mph87%30.09 "Hg10 mi
10:20 PM50 °FClear.9 mph88%30.09 "Hg10 mi
9:50 PM50 °FClear.10 mph82%30.09 "Hg10 mi
9:20 PM52 °FSunny.12 mph77%30.09 "Hg10 mi
8:50 PM54 °FSunny.12 mph77%30.09 "Hg10 mi
8:20 PM55 °FSunny.7 mph63%30.07 "Hg10 mi
7:50 PM57 °FSunny.8 mph59%30.07 "Hg10 mi
7:20 PM59 °FSunny.8 mph55%30.07 "Hg10 mi
6:50 PM59 °FSunny.7 mph51%30.07 "Hg10 mi
6:20 PM59 °FSunny.5 mph59%30.09 "Hg10 mi
5:50 PM61 °FSunny.3 mph52%30.09 "Hg10 mi
5:20 PM61 °FSunny.1 mph45%30.09 "Hg10 mi
4:50 PM61 °FPassing clouds.5 mph48%30.09 "HgN/A
4:20 PM61 °FPassing clouds.6 mph42%30.09 "HgN/A
3:50 PM61 °FSunny.7 mph48%30.09 "Hg10 mi
3:20 PM61 °FPartly sunny.6 mph52%30.09 "HgN/A
2:50 PM61 °FBroken clouds.7 mph45%30.12 "HgN/A
2:20 PM61 °FBroken clouds.3 mph55%30.12 "HgN/A
1:50 PM61 °FBroken clouds.5 mph48%30.12 "HgN/A
1:20 PM59 °FPartly sunny.7 mph55%30.12 "HgN/A
12:50 PM59 °FPartly sunny.3 mph55%30.12 "HgN/A
12:20 PM59 °FPartly sunny.6 mph55%30.15 "HgN/A
11:50 AM57 °FPartly sunny.6 mph55%30.15 "HgN/A
11:20 AM55 °FPartly sunny.5 mph59%30.15 "HgN/A
10:50 AM54 °FPartly sunny.3 mph63%30.15 "HgN/A
10:20 AM54 °FPassing clouds.3 mph63%30.15 "HgN/A
9:50 AM52 °FSunny.3 mph67%30.15 "Hg10 mi
9:20 AM50 °FPassing clouds.5 mph71%30.15 "HgN/A
Weather by CustomWeather, © 2016

See weather overviewHow to use our weather pages